[[{"header":{"parameterUnit":"m.s-1","parameterCategory":1,"la1":30.2991,"la2":30.254,"lo1":-89.0895,"lo2":-89.0444,"dy":0.0017,"dx":0.0017,"nx":28,"ny":28,"refTime":"2024-08-08T21:00:00:Z","depth":0,"parameterNumber":2,"parameterNumberName":"U-component_of_WINDS"},"data":[0,0,0,0,0,0,0,0,0,0,0,0,0,0,0,0,0,0,0,0,0,0,0,0,0,0,0,0,0,0,0,0,0,0,0,0,0,0,0,0,0,0,0,0,0,0,0,0,0,0,0,0,0,0,0,0,0,0,0.2615,0.2615,0,0.2559,0.2559,0.2558,0.2566,0.2566,0.2567,0.2568,0.2511,0.2509,0.2506,0,0,0,0,0,0,0,0,0,0,0,0,0,0.2727,0.2725,0.2615,0.2615,0.2614,0.256,0.2559,0.2558,0.2565,0.2566,0.2568,0.2569,0.2512,0.2509,0.2506,0,0,0,0,0,0,0,0,0,0,0,0,0,0.2676,0.2725,0.2615,0.2611,0.261,0.256,0.2559,0.2558,0.2565,0.2567,0.2568,0.2569,0.2513,0.2509,0.2506,0.2456,0,0,0.2495,0.2493,0,0,0,0,0,0,0,0,0.2679,0.2672,0.2612,0.2611,0.261,0.2571,0.2577,0.2524,0.2565,0.2582,0.2568,0.257,0.253,0.2525,0.2511,0.2453,0.2451,0.2494,0.2492,0.2491,0.249,0,0,0,0,0,0,0,0.2682,0.2674,0.2593,0.2611,0.261,0.2612,0.2606,0.2567,0.2549,0.2581,0.2581,0.2574,0.2529,0.2515,0.251,0.245,0.2495,0.2491,0.2489,0.2488,0.2348,0.2346,0,0,0,0,0,0,0.2687,0.2677,0.2595,0.2591,0.2649,0.2608,0.2602,0.2582,0.2549,0.2546,0.2573,0.2575,0.252,0.2514,0.2508,0.2447,0.2491,0.2487,0.2485,0.2349,0.2347,0.2346,0,0,0,0,0,0,0.269,0.268,0.2597,0.2634,0.2624,0.2605,0.2583,0.258,0.2566,0.2544,0.2541,0.2562,0.2521,0.2513,0.2469,0.2445,0.2486,0.2483,0.2351,0.2349,0.2347,0.2325,0,0,0,0,0,0,0.2693,0.2681,0.2662,0.2634,0.2622,0.2559,0.2581,0.2578,0.2559,0.2561,0.2532,0.2529,0.2522,0.2474,0.2465,0.2441,0.248,0.2353,0.235,0.2347,0.2327,0.2322,0.2317,0,0,0,0,0,0.2697,0.2658,0.2661,0.2651,0.2598,0.2557,0.2551,0.2543,0.2558,0.2538,0.2524,0.2529,0.2449,0.2469,0.246,0.2434,0.2355,0.2351,0.2348,0.233,0.2323,0.2317,0,0,0,0,0,0,0.2683,0.2654,0.2657,0.2608,0.2585,0.2559,0.2534,0.2537,0.2509,0.2512,0.2504,0.2497,0.2452,0.2439,0.2462,0.2384,0.2404,0.2398,0.2394,0.2387,0.2382,0.2386,0.2477,0,0,0,0,0,0.2675,0.2644,0.2621,0.258,0.2568,0.2553,0.2535,0.2532,0.2507,0.2498,0.2481,0.2457,0.2426,0.2406,0.2377,0.2326,0.2319,0.2303,0.2298,0.2294,0.2289,0.226,0.2252,0.2334,0.2334,0.2334,0,0,0.2656,0.2637,0.2618,0.2576,0.2558,0.2527,0.2545,0.2511,0.2487,0.2493,0.2449,0.2436,0.2409,0.2361,0.2339,0.2348,0.2265,0.229,0.2287,0.2283,0.2255,0.2248,0.2241,0.2332,0.2332,0.2332,0,0,0.2607,0.2589,0.2553,0.2534,0.2506,0.2497,0.2488,0.2461,0.2452,0.2409,0.2412,0.2384,0.2332,0.2312,0.2295,0.2238,0.2241,0.2229,0.2201,0.2173,0.2166,0.2161,0.2139,0.2131,0.2224,0.2224,0.2224,0,0.2587,0.254,0.2534,0.2499,0.248,0.2484,0.2446,0.2429,0.2393,0.238,0.2391,0.2325,0.2307,0.2254,0.224,0.2227,0.2216,0.2231,0.2168,0.2162,0.2157,0.2136,0.2128,0.2222,0.2222,0.2222,0.2223,0,0.2517,0.2484,0.2458,0.2422,0.2401,0.2365,0.2353,0.2332,0.233,0.2319,0.2275,0.2254,0.222,0.2207,0.2206,0.2153,0.216,0.217,0.219,0.2147,0.2128,0.212,0.222,0.2221,0.2221,0.2221,0,0,0.2456,0.2418,0.2408,0.2392,0.2362,0.2336,0.23,0.2267,0.2248,0.2224,0.2193,0.2149,0.2157,0.2138,0.2135,0.211,0.2064,0.2123,0.2122,0.2111,0.2004,0.1996,0.1987,0.2067,0.2066,0.2065,0.2006,0,0.2402,0.2339,0.2332,0.2275,0.2244,0.2247,0.2216,0.2194,0.2182,0.2154,0.2142,0.211,0.2125,0.2113,0.2089,0.2075,0.2043,0.2079,0.2038,0.2036,0.2043,0.1977,0.1968,0.1914,0.1999,0.1997,0.1996,0,0.2331,0.2304,0.2243,0.2216,0.2203,0.2175,0.2144,0.2117,0.2092,0.2086,0.2064,0.2063,0.2026,0.2049,0.1997,0.2022,0.2005,0.1995,0.1993,0.1987,0.2013,0.1968,0.1897,0.1888,0.1984,0.1985,0.1986,0,0.2291,0.2239,0.2196,0.2182,0.215,0.213,0.2116,0.2093,0.2073,0.2046,0.2032,0.2002,0.1984,0.196,0.1951,0.1968,0.1899,0.1921,0.1892,0.1892,0.1876,0.1877,0.1799,0.1867,0.1867,0.1868,0.1868,0,0.223,0.2193,0.2177,0.2151,0.2109,0.2102,0.206,0.2047,0.2026,0.1997,0.1998,0.1971,0.1961,0.1932,0.1925,0.1882,0.1875,0.1868,0.1866,0.1867,0.1867,0.1854,0.1857,0.1865,0.1866,0.1866,0.1867,0,0.2178,0.2166,0.2119,0.2093,0.2085,0.2055,0.2033,0.2007,0.1997,0.1959,0.195,0.1933,0.1899,0.1888,0.1847,0.1842,0.1792,0.1794,0.18,0.1799,0.177,0.1772,0.168,0.1667,0.1745,0.1744,0.1744,0,0.2139,0.211,0.2081,0.2061,0.2046,0.2015,0.1994,0.1986,0.1965,0.1934,0.1912,0.1878,0.185,0.1795,0.1779,0.1747,0.1748,0.1718,0.1743,0.1744,0.1746,0.1747,0.1743,0.1712,0.1712,0.1711,0.171,0,0.2072,0.2067,0.2038,0.2006,0.1982,0.1957,0.1932,0.1916,0.1905,0.1881,0.1845,0.1824,0.1781,0.1747,0.1715,0.17,0.1703,0.1703,0.1694,0.1693,0.1697,0.1693,0.1785,0.1704,0.1705,0.1705,0.1706,0.1706,0.2024,0.1998,0.1973,0.194,0.1921,0.1898,0.1872,0.1858,0.1828,0.1793,0.179,0.1752,0.1727,0.1684,0.1668,0.1638,0.1646,0.1634,0.163,0.1627,0.1624,0.1704,0.1632,0.1632,0.1632,0.1632,0.1632,0,0.1955,0.1939,0.1909,0.1874,0.1848,0.1854,0.1827,0.1805,0.1771,0.1748,0.172,0.1679,0.1646,0.1628,0.1595,0.1574,0.1574,0.1565,0.1566,0.1562,0.1619,0.1629,0.1565,0.1565,0.1565,0.1565,0.1565,0.1565,0.1916,0.1872,0.1864,0.1811,0.1795,0.1757,0.1741,0.172,0.1702,0.1656,0.1628,0.1616,0.1595,0.156,0.153,0.1525,0.1512,0.1502,0.1498,0.1552,0.1558,0.1565,0.1574,0.15,0.15,0.1444,0.1443,0.1443]},{"header":{"parameterUnit":"m.s-1","parameterCategory":1,"la1":30.2991,"la2":30.254,"lo1":-89.0895,"lo2":-89.0444,"dy":0.0017,"dx":0.0017,"nx":28,"ny":28,"refTime":"2024-08-08T21:00:00:Z","depth":0,"parameterNumber":3,"parameterNumberName":"V-component_of_WINDS"},"data":[0,0,0,0,0,0,0,0,0,0,0,0,0,0,0,0,0,0,0,0,0,0,0,0,0,0,0,0,0,0,0,0,0,0,0,0,0,0,0,0,0,0,0,0,0,0,0,0,0,0,0,0,0,0,0,0,0,0,-4.2193,-4.2194,0,-4.2293,-4.2294,-4.2295,-4.2244,-4.2241,-4.2238,-4.2236,-4.2333,-4.2337,-4.2342,0,0,0,0,0,0,0,0,0,0,0,0,0,-4.1955,-4.196,-4.2193,-4.2195,-4.2196,-4.2292,-4.2294,-4.2295,-4.2244,-4.2241,-4.2238,-4.2235,-4.2331,-4.2337,-4.2343,0,0,0,0,0,0,0,0,0,0,0,0,0,-4.2057,-4.1961,-4.2193,-4.2182,-4.2182,-4.2292,-4.2294,-4.2295,-4.2245,-4.2241,-4.2237,-4.2233,-4.2329,-4.2336,-4.2344,-4.2469,0,0,-4.2367,-4.237,0,0,0,0,0,0,0,0,-4.2051,-4.2066,-4.2182,-4.2183,-4.2183,-4.2252,-4.2245,-4.2353,-4.2246,-4.2221,-4.2236,-4.2231,-4.2308,-4.2317,-4.2344,-4.2473,-4.2477,-4.2367,-4.2372,-4.2375,-4.2377,0,0,0,0,0,0,0,-4.2044,-4.2061,-4.2232,-4.2184,-4.2185,-4.2171,-4.2181,-4.2265,-4.2285,-4.2223,-4.2219,-4.2232,-4.2308,-4.2337,-4.2346,-4.2479,-4.2367,-4.2374,-4.2378,-4.2381,-4.2714,-4.2719,0,0,0,0,0,0,-4.2038,-4.2055,-4.2229,-4.2235,-4.2106,-4.2178,-4.2189,-4.2234,-4.2284,-4.2288,-4.2235,-4.2229,-4.2326,-4.2338,-4.235,-4.2499,-4.2375,-4.2382,-4.2386,-4.271,-4.2715,-4.272,0,0,0,0,0,0,-4.2033,-4.2054,-4.2225,-4.2145,-4.2165,-4.2187,-4.2236,-4.2238,-4.2267,-4.2294,-4.2297,-4.2262,-4.2324,-4.2339,-4.244,-4.2502,-4.2385,-4.2392,-4.2705,-4.2712,-4.2718,-4.28,0,0,0,0,0,0,-4.2027,-4.2053,-4.2102,-4.2146,-4.217,-4.2315,-4.224,-4.2242,-4.2281,-4.2274,-4.232,-4.2323,-4.2322,-4.2429,-4.2447,-4.251,-4.2398,-4.2699,-4.2708,-4.2716,-4.2792,-4.2808,-4.2823,0,0,0,0,0,-4.2018,-4.212,-4.2104,-4.2126,-4.2232,-4.2319,-4.2332,-4.233,-4.2286,-4.2335,-4.2352,-4.2322,-4.2492,-4.244,-4.246,-4.2526,-4.2696,-4.2706,-4.2715,-4.2785,-4.2805,-4.2822,0,0,0,0,0,0,-4.208,-4.2125,-4.2109,-4.2228,-4.227,-4.231,-4.2371,-4.2352,-4.2406,-4.2397,-4.239,-4.2401,-4.2506,-4.2526,-4.2466,-4.2649,-4.2587,-4.2601,-4.2633,-4.2652,-4.2668,-4.266,-4.2404,0,0,0,0,0,-4.2108,-4.2177,-4.2212,-4.2313,-4.2336,-4.235,-4.2388,-4.2383,-4.2426,-4.2443,-4.2467,-4.2509,-4.2571,-4.2613,-4.2672,-4.2794,-4.2803,-4.285,-4.2865,-4.2878,-4.289,-4.2956,-4.2977,-4.2752,-4.2752,-4.2752,0,0,-4.2165,-4.2198,-4.2242,-4.2327,-4.2359,-4.2429,-4.2365,-4.2442,-4.2494,-4.2454,-4.2551,-4.2571,-4.2616,-4.2728,-4.2779,-4.2748,-4.2954,-4.289,-4.29,-4.2905,-4.2968,-4.2989,-4.3008,-4.2759,-4.2758,-4.2757,0,0,-4.2306,-4.2338,-4.2427,-4.2461,-4.2511,-4.252,-4.2541,-4.2585,-4.2597,-4.2695,-4.2666,-4.2726,-4.2835,-4.2869,-4.29,-4.3054,-4.3029,-4.3073,-4.3154,-4.3218,-4.3236,-4.3252,-4.3306,-4.3326,-4.3086,-4.3086,-4.3086,0,-4.237,-4.2477,-4.2474,-4.2554,-4.2591,-4.256,-4.2649,-4.2681,-4.2748,-4.2774,-4.2739,-4.2875,-4.2903,-4.3023,-4.3061,-4.3087,-4.311,-4.3068,-4.3234,-4.325,-4.3264,-4.3316,-4.3337,-4.3091,-4.309,-4.309,-4.3089,0,-4.2554,-4.2628,-4.2693,-4.276,-4.2805,-4.2888,-4.2897,-4.2942,-4.2933,-4.2946,-4.3045,-4.3078,-4.3144,-4.3172,-4.3163,-4.329,-4.3269,-4.3235,-4.3171,-4.3291,-4.3339,-4.3359,-4.3098,-4.3096,-4.3095,-4.3094,0,0,-4.2735,-4.2801,-4.2825,-4.2855,-4.2908,-4.2965,-4.3046,-4.3112,-4.3151,-4.3198,-4.3266,-4.3358,-4.3327,-4.3362,-4.3357,-4.3413,-4.3533,-4.3371,-4.3372,-4.34,-4.3675,-4.3701,-4.3724,-4.3516,-4.352,-4.3523,-4.3671,0,-4.288,-4.3025,-4.3025,-4.3158,-4.3226,-4.3198,-4.3269,-4.3309,-4.3323,-4.3381,-4.3395,-4.3461,-4.3414,-4.3436,-4.349,-4.3507,-4.3588,-4.3496,-4.3578,-4.3581,-4.3568,-4.3749,-4.3777,-4.3915,-4.369,-4.3693,-4.3695,0,-4.3067,-4.3123,-4.3263,-4.3307,-4.3336,-4.34,-4.346,-4.3517,-4.3561,-4.3567,-4.3607,-4.3593,-4.3675,-4.361,-4.3722,-4.3659,-4.3693,-4.3706,-4.3711,-4.3718,-4.3645,-4.3761,-4.3959,-4.3979,-4.3725,-4.3723,-4.3721,0,-4.3186,-4.3295,-4.3393,-4.342,-4.3474,-4.3519,-4.3544,-4.3584,-4.3624,-4.3676,-4.3701,-4.3761,-4.3794,-4.3841,-4.3843,-4.3795,-4.3956,-4.3891,-4.3962,-4.3962,-4.3997,-4.3994,-4.4202,-4.4019,-4.4018,-4.4018,-4.4017,0,-4.3347,-4.3434,-4.3448,-4.3508,-4.3604,-4.3603,-4.3698,-4.3718,-4.3754,-4.3817,-4.3795,-4.3854,-4.3853,-4.3913,-4.3915,-4.4007,-4.4022,-4.4028,-4.4027,-4.403,-4.4029,-4.4051,-4.4042,-4.4023,-4.4022,-4.4021,-4.402,0,-4.3496,-4.3508,-4.3614,-4.3656,-4.3669,-4.3738,-4.3774,-4.3831,-4.3843,-4.3922,-4.3941,-4.3959,-4.4028,-4.4035,-4.4115,-4.4116,-4.4227,-4.4216,-4.4213,-4.4211,-4.4282,-4.4275,-4.4511,-4.4542,-4.4339,-4.4341,-4.4342,0,-4.3598,-4.3664,-4.3715,-4.3756,-4.3784,-4.385,-4.3891,-4.3892,-4.3935,-4.3991,-4.4041,-4.4108,-4.4162,-4.4273,-4.4292,-4.4353,-4.4343,-4.4422,-4.4352,-4.4353,-4.4344,-4.434,-4.4347,-4.4435,-4.4437,-4.4439,-4.4441,0,-4.3777,-4.378,-4.3841,-4.3905,-4.3954,-4.4004,-4.405,-4.4084,-4.4091,-4.414,-4.4212,-4.4254,-4.4336,-4.4403,-4.4462,-4.4485,-4.4464,-4.4463,-4.4482,-4.4485,-4.4481,-4.4484,-4.425,-4.4457,-4.4455,-4.4454,-4.4453,-4.4453,-4.3905,-4.3963,-4.4008,-4.4077,-4.4112,-4.4156,-4.4212,-4.4231,-4.4292,-4.436,-4.4356,-4.4435,-4.4476,-4.4555,-4.4582,-4.4643,-4.4616,-4.4645,-4.4652,-4.4659,-4.4666,-4.4472,-4.4654,-4.4653,-4.4653,-4.4652,-4.4652,0,-4.4084,-4.4111,-4.4174,-4.4241,-4.4294,-4.4272,-4.4322,-4.4367,-4.4438,-4.4479,-4.4533,-4.4615,-4.468,-4.4705,-4.4768,-4.4811,-4.4803,-4.4828,-4.4824,-4.483,-4.4686,-4.4663,-4.4833,-4.4833,-4.4833,-4.4833,-4.4833,-4.4833,-4.4183,-4.428,-4.4288,-4.4402,-4.4429,-4.4508,-4.4538,-4.4578,-4.4611,-4.4704,-4.4759,-4.4775,-4.481,-4.4875,-4.4933,-4.4938,-4.4962,-4.4991,-4.4993,-4.4858,-4.484,-4.4822,-4.48,-4.4997,-4.4997,-4.5131,-4.5132,-4.5133]}]]